This is the latest recevied weather packets stored in our database for station/object 4S6DRJ-13. If no packets are shown the sender has not sent any weather packets the latest 10 day(s).
| Time | Temp. | Humidity | Pressure | Rain* | Wind** | Luminosity | Snow |
|---|---|---|---|---|---|---|---|
| 1788142610 | 28.33° C | 81% | 1010 hPa | 0 mm | 1.79 m/s, 174° | 118 W/m² | - |
| 1788142549 | 28.33° C | 81% | 1009.9 hPa | 0 mm | 1.79 m/s, 339° | 121 W/m² | - |
| 1788142489 | 28.33° C | 81% | 1009.8 hPa | 0 mm | 1.79 m/s, 229° | 128 W/m² | - |
| 1788142427 | 28.33° C | 82% | 1009.7 hPa | 0 mm | 1.34 m/s, 237° | 241 W/m² | - |
| 1788142366 | 28.33° C | 82% | 1009.7 hPa | 0 mm | 0.89 m/s, 332° | 250 W/m² | - |
| 1788142305 | 28.33° C | 82% | 1010 hPa | 0 mm | 0.45 m/s, 243° | 174 W/m² | - |
| 1788142244 | 28.33° C | 82% | 1009.8 hPa | 0 mm | 0.45 m/s, 223° | 240 W/m² | - |
| 1788142183 | 28.33° C | 82% | 1009.8 hPa | 0 mm | 0.45 m/s, 23° | 305 W/m² | - |
| 1788142122 | 28.33° C | 82% | 1009.8 hPa | 0 mm | 0.89 m/s, 299° | 200 W/m² | - |
| 1788142061 | 28.33° C | 82% | 1009.8 hPa | 0 mm | 1.34 m/s, 216° | 187 W/m² | - |
| 1788142000 | 28.33° C | 81% | 1010.1 hPa | 0 mm | 1.79 m/s, 234° | 167 W/m² | - |
| 1788141939 | 28.33° C | 81% | 1009.8 hPa | 0 mm | 1.34 m/s, 288° | 161 W/m² | - |
| 1788141884 | 28.33° C | 81% | 1009.7 hPa | 0 mm | 1.34 m/s, 274° | 155 W/m² | - |
| 1788141817 | 28.33° C | 82% | 1009.9 hPa | 0 mm | 0.89 m/s, 180° | 150 W/m² | - |
| 1788141756 | 28.33° C | 82% | 1009.8 hPa | 0 mm | 1.34 m/s, 194° | 183 W/m² | - |
| 1788141695 | 28.33° C | 82% | 1009.9 hPa | 0 mm | 1.79 m/s, 247° | 239 W/m² | - |
| 1788141634 | 28.33° C | 82% | 1009.6 hPa | 0 mm | 1.34 m/s, 323° | 272 W/m² | - |
| 1788141573 | 28.33° C | 82% | 1009.7 hPa | 0 mm | 0.89 m/s, 270° | 269 W/m² | - |
| 1788141512 | 28.33° C | 82% | 1009.8 hPa | 0 mm | 1.34 m/s, 332° | 250 W/m² | - |
| 1788141452 | 27.78° C | 83% | 1009.7 hPa | 0 mm | 0.45 m/s, 229° | 245 W/m² | - |
| 1788141390 | 27.78° C | 83% | 1009.6 hPa | 0 mm | 0.89 m/s, 210° | 225 W/m² | - |
| 1788141329 | 27.78° C | 83% | 1009.8 hPa | 0 mm | 0.89 m/s, 222° | 193 W/m² | - |
| 1788141268 | 27.78° C | 83% | 1009.5 hPa | 0 mm | 0.89 m/s, 318° | 125 W/m² | - |
| 1788141207 | 27.78° C | 83% | 1009.6 hPa | 0 mm | 0.45 m/s, 198° | 114 W/m² | - |
| 1788141146 | 27.78° C | 83% | 1009.7 hPa | 0 mm | 0.45 m/s, 301° | 107 W/m² | - |
* Rain latest hour (hover to see other rain measurements)
** Current wind speed in m/s (hover to see current wind gust speed)